Hourly Weather Asadabad

Today, 2 December, Wednesday

Time Temperature Precipitation Wind Pressure Humidity
00:00 +11°C° 0 mm 3 mps 661 mmHg 39%
01:00 +10°C° 0 mm 3 mps 661 mmHg 39%
02:00 +10°C° 0 mm 3 mps 660 mmHg 38%
03:00 +10°C° 0 mm 3 mps 660 mmHg 38%
04:00 +10°C° 0 mm 3 mps 660 mmHg 37%
05:00 +8°C° 0 mm 4 mps 660 mmHg 37%
06:00 +10°C° 0 mm 4 mps 660 mmHg 36%
07:00 +10°C° 0 mm 4 mps 661 mmHg 35%
08:00 +10°C° 0 mm 4 mps 661 mmHg 34%
09:00 +12°C° 0 mm 3 mps 661 mmHg 30%
10:00 +16°C° 0 mm 3 mps 662 mmHg 26%
11:00 +18°C° 0 mm 2 mps 662 mmHg 22%
12:00 +18°C° 0 mm 2 mps 662 mmHg 22%
13:00 +20°C° 0 mm 1 mps 661 mmHg 21%
14:00 +21°C° 0 mm 1 mps 661 mmHg 21%
15:00 +19°C° 0 mm 1 mps 660 mmHg 26%
16:00 +16°C° 0 mm 1 mps 659 mmHg 31%
17:00 +14°C° 0 mm 1 mps 658 mmHg 36%
18:00 +14°C° 0 mm 2 mps 659 mmHg 36%
19:00 +13°C° 0 mm 2 mps 659 mmHg 35%
20:00 +12°C° 0 mm 3 mps 659 mmHg 34%
21:00 +11°C° 0 mm 3 mps 659 mmHg 33%
22:00 +11°C° 0 mm 3 mps 658 mmHg 32%
23:00 +10°C° 0 mm 3 mps 658 mmHg 31%

Tomorrow, 3 December, Thursday

Time Temperature Precipitation Wind Pressure Humidity
00:00 +10°C° 0 mm 3 mps 658 mmHg 30%
01:00 +10°C° 0 mm 3 mps 658 mmHg 29%
02:00 +9°C° 0 mm 3 mps 657 mmHg 28%
03:00 +9°C° 0 mm 3 mps 657 mmHg 28%
04:00 +9°C° 0 mm 3 mps 657 mmHg 27%
05:00 +9°C° 0 mm 3 mps 657 mmHg 26%
06:00 +9°C° 0 mm 3 mps 657 mmHg 27%
07:00 +9°C° 0 mm 3 mps 657 mmHg 27%
08:00 +10°C° 0 mm 3 mps 658 mmHg 28%
09:00 +12°C° 0 mm 3 mps 658 mmHg 25%
10:00 +15°C° 0 mm 2 mps 659 mmHg 22%
11:00 +18°C° 0 mm 2 mps 660 mmHg 18%
12:00 +18°C° 0 mm 2 mps 659 mmHg 18%
13:00 +20°C° 0 mm 1 mps 659 mmHg 17%
14:00 +20°C° 0 mm 1 mps 659 mmHg 17%
15:00 +18°C° 0 mm 1 mps 658 mmHg 22%
16:00 +15°C° 0 mm 1 mps 657 mmHg 28%
17:00 +12°C° 0 mm 0 mps 657 mmHg 33%
18:00 +13°C° 0 mm 1 mps 657 mmHg 33%
19:00 +12°C° 0 mm 1 mps 657 mmHg 33%
20:00 +12°C° 0 mm 2 mps 657 mmHg 34%
21:00 +12°C° 0 mm 2 mps 657 mmHg 34%
22:00 +10°C° 0 mm 2 mps 657 mmHg 34%
23:00 +10°C° 0 mm 2 mps 657 mmHg 34%

Day after tomorrow, 4 December, Friday

Time Temperature Precipitation Wind Pressure Humidity
00:00 +10°C° 0 mm 2 mps 656 mmHg 34%
01:00 +10°C° 0 mm 2 mps 656 mmHg 33%
02:00 +9°C° 0 mm 2 mps 656 mmHg 33%
03:00 +9°C° 0 mm 2 mps 656 mmHg 33%
04:00 +9°C° 0 mm 2 mps 656 mmHg 32%
05:00 +9°C° 0 mm 2 mps 655 mmHg 32%
06:00 +9°C° 0 mm 2 mps 656 mmHg 33%
07:00 +9°C° 0 mm 2 mps 656 mmHg 33%
08:00 +10°C° 0 mm 3 mps 656 mmHg 33%
09:00 +13°C° 0 mm 2 mps 657 mmHg 30%
10:00 +14°C° 0 mm 2 mps 658 mmHg 27%
11:00 +16°C° 0 mm 1 mps 658 mmHg 23%
12:00 +18°C° 0 mm 1 mps 658 mmHg 25%
13:00 +18°C° 0 mm 1 mps 658 mmHg 27%
14:00 +18°C° 0 mm 1 mps 657 mmHg 29%
15:00 +16°C° 0 mm 1 mps 657 mmHg 34%
16:00 +15°C° 0 mm 2 mps 657 mmHg 40%
17:00 +14°C° 0 mm 2 mps 657 mmHg 46%
18:00 +13°C° 0 mm 2 mps 657 mmHg 50%
19:00 +12°C° 0 mm 2 mps 657 mmHg 53%
20:00 +10°C° 0 mm 2 mps 657 mmHg 57%
21:00 +10°C° 0 mm 3 mps 657 mmHg 57%
22:00 +10°C° 0 mm 3 mps 657 mmHg 56%
23:00 +9°C° 0 mm 3 mps 657 mmHg 56%

5 December, Saturday

Time Temperature Precipitation Wind Pressure Humidity
00:00 +9°C° 0 mm 3 mps 657 mmHg 55%
01:00 +9°C° 0 mm 3 mps 657 mmHg 54%
02:00 +9°C° 0 mm 3 mps 657 mmHg 52%
03:00 +8°C° 0 mm 3 mps 657 mmHg 51%
04:00 +8°C° 0 mm 3 mps 657 mmHg 49%
05:00 +8°C° 0 mm 3 mps 656 mmHg 48%
06:00 +8°C° 0 mm 3 mps 657 mmHg 46%
07:00 +8°C° 0 mm 3 mps 657 mmHg 45%
08:00 +8°C° 0 mm 3 mps 658 mmHg 43%
09:00 +10°C° 0 mm 2 mps 658 mmHg 39%
10:00 +13°C° 0 mm 2 mps 658 mmHg 36%
11:00 +14°C° 0 mm 1 mps 659 mmHg 32%
12:00 +15°C° 0 mm 1 mps 658 mmHg 32%
13:00 +15°C° 0 mm 1 mps 658 mmHg 33%
14:00 +16°C° 0 mm 1 mps 658 mmHg 33%
15:00 +14°C° 0 mm 1 mps 658 mmHg 39%
16:00 +13°C° 0 mm 1 mps 657 mmHg 44%
17:00 +11°C° 0 mm 0 mps 657 mmHg 50%
18:00 +11°C° 0 mm 1 mps 657 mmHg 51%
19:00 +11°C° 0 mm 1 mps 658 mmHg 51%
20:00 +10°C° 0 mm 1 mps 658 mmHg 52%
21:00 +9°C° 0 mm 2 mps 658 mmHg 51%
22:00 +9°C° 0 mm 2 mps 659 mmHg 50%
23:00 +9°C° 0 mm 3 mps 659 mmHg 49%

6 December, Sunday

Time Temperature Precipitation Wind Pressure Humidity
00:00 +8°C° 0 mm 3 mps 659 mmHg 49%
01:00 +8°C° 0 mm 3 mps 658 mmHg 48%
02:00 +8°C° 0 mm 3 mps 658 mmHg 48%
03:00 +8°C° 0 mm 3 mps 658 mmHg 47%
04:00 +7°C° 0 mm 3 mps 658 mmHg 46%
05:00 +7°C° 0 mm 3 mps 658 mmHg 45%
06:00 +7°C° 0 mm 3 mps 658 mmHg 44%
07:00 +7°C° 0 mm 3 mps 659 mmHg 42%
08:00 +8°C° 0 mm 3 mps 659 mmHg 41%
09:00 +10°C° 0 mm 3 mps 660 mmHg 37%
10:00 +12°C° 0 mm 2 mps 660 mmHg 32%
11:00 +14°C° 0 mm 2 mps 661 mmHg 28%
12:00 +15°C° 0 mm 2 mps 660 mmHg 28%
13:00 +15°C° 0 mm 1 mps 660 mmHg 28%
14:00 +16°C° 0 mm 1 mps 660 mmHg 28%
15:00 +15°C° 0 mm 1 mps 659 mmHg 32%
16:00 +13°C° 0 mm 1 mps 659 mmHg 37%
17:00 +12°C° 0 mm 1 mps 659 mmHg 41%
18:00 +12°C° 0 mm 2 mps 659 mmHg 41%
19:00 +12°C° 0 mm 2 mps 659 mmHg 40%
20:00 +10°C° 0 mm 2 mps 659 mmHg 39%
21:00 +10°C° 0 mm 2 mps 659 mmHg 38%
22:00 +10°C° 0 mm 2 mps 660 mmHg 38%
23:00 +10°C° 0 mm 2 mps 660 mmHg 37%

7 December, Monday

Time Temperature Precipitation Wind Pressure Humidity
00:00 +10°C° 0 mm 2 mps 660 mmHg 37%
01:00 +10°C° 0 mm 3 mps 660 mmHg 38%
02:00 +10°C° 0 mm 3 mps 660 mmHg 39%
03:00 +10°C° 0 mm 3 mps 659 mmHg 42%
04:00 +10°C° 0 mm 3 mps 659 mmHg 44%
05:00 +10°C° 0 mm 3 mps 659 mmHg 47%
06:00 +9°C° 0 mm 3 mps 659 mmHg 50%
07:00 +8°C° 0 mm 4 mps 659 mmHg 52%
08:00 +8°C° 0 mm 4 mps 660 mmHg 54%
09:00 +10°C° 0 mm 3 mps 660 mmHg 53%
10:00 +11°C° 0 mm 3 mps 660 mmHg 52%
11:00 +12°C° 0 mm 3 mps 660 mmHg 50%
12:00 +13°C° 0 mm 2 mps 660 mmHg 50%
13:00 +13°C° 0 mm 2 mps 660 mmHg 49%
14:00 +14°C° 0 mm 2 mps 659 mmHg 48%
15:00 +13°C° 0 mm 2 mps 659 mmHg 51%
16:00 +13°C° 0 mm 2 mps 659 mmHg 55%
17:00 +12°C° 0 mm 1 mps 659 mmHg 58%
18:00 +10°C° 0 mm 2 mps 659 mmHg 61%
19:00 +10°C° 0 mm 2 mps 659 mmHg 63%
20:00 +9°C° 0 mm 2 mps 659 mmHg 65%
21:00 +9°C° 0 mm 2 mps 659 mmHg 66%
22:00 +9°C° 0 mm 2 mps 659 mmHg 66%
23:00 +9°C° 0 mm 2 mps 659 mmHg 66%
Show more

We Need Your Consent

Meteoprog and our Service Providers may store and access personal data such as cookies, device identifiers or other similar technologies on your device and process such data to personalise content and ads, as well as provide social media features and to analyse the traffic.

  • Store and/or access information on your device

    Cookies, device identifiers or other information can be stored or accessed on your device for the purposes indicated above.

  • Personalised ads and content, ad and content measurement, audience insights, and products development

    Ads and content can be personalised based on a profile. More data can be added to better personalise ads and content. Ad and content performance can be measured. Insights about the audience who saw the ads and content can be derived. Such data can be used to develop or improve user’s experience, systems and software.

By clicking ‘I Agree’ you will allow the use of indicated cookies, device identifiers, web beacons or other similar technologies. Your settings can be changed in the browser on your device.

For certain purposes, legitimate interests may be relied on, rather than consent. You can read more about this in our Privacy and Cookie Policy.